TimePDT,TemperatureF,Dew PointF,Humidity,Sea Level PressureIn,VisibilityMPH,Wind Direction,Wind SpeedMPH,Gust SpeedMPH,PrecipitationIn,Events,Conditions,WindDirDegrees,DateUTC
12:53 AM,63.0,62.1,97,29.87,8.0,ESE,6.9,-,N/A,,Overcast,120,2012-10-20 07:53:00
1:53 AM,62.1,61.0,96,29.88,8.0,East,6.9,-,N/A,,Overcast,80,2012-10-20 08:53:00
2:53 AM,62.1,61.0,96,29.87,10.0,ENE,8.1,-,N/A,,Overcast,70,2012-10-20 09:53:00
3:53 AM,62.1,62.1,100,29.86,6.0,ENE,3.5,-,N/A,,Overcast,70,2012-10-20 10:53:00
4:41 AM,62.6,60.8,94,29.85,8.0,NE,4.6,-,N/A,,Overcast,40,2012-10-20 11:41:00
4:53 AM,62.1,61.0,96,29.85,9.0,NE,4.6,-,N/A,,Overcast,40,2012-10-20 11:53:00
5:53 AM,62.1,61.0,96,29.86,10.0,NE,3.5,-,N/A,,Overcast,40,2012-10-20 12:53:00
6:53 AM,62.1,61.0,96,29.88,5.0,Calm,Calm,-,0.00,Rain,Light Rain,0,2012-10-20 13:53:00
7:53 AM,62.1,61.0,96,29.88,5.0,Calm,Calm,-,N/A,,Overcast,0,2012-10-20 14:53:00
8:53 AM,63.0,62.1,97,29.90,8.0,Calm,Calm,-,N/A,,Overcast,0,2012-10-20 15:53:00
9:22 AM,62.6,62.6,100,29.90,9.0,SSE,3.5,-,N/A,,Overcast,150,2012-10-20 16:22:00
9:53 AM,64.0,62.1,93,29.89,10.0,East,4.6,-,0.01,,Overcast,80,2012-10-20 16:53:00
10:53 AM,66.0,61.0,84,29.89,10.0,SE,5.8,-,N/A,,Overcast,130,2012-10-20 17:53:00
11:53 AM,70.0,60.1,71,29.88,10.0,SSE,6.9,-,N/A,,Overcast,150,2012-10-20 18:53:00
12:53 PM,70.0,61.0,73,29.86,10.0,SSE,8.1,-,N/A,,Overcast,150,2012-10-20 19:53:00
1:53 PM,69.1,61.0,75,29.85,10.0,South,5.8,-,N/A,,Overcast,180,2012-10-20 20:53:00
2:53 PM,69.1,61.0,75,29.84,5.0,WSW,6.9,-,N/A,,Haze,250,2012-10-20 21:53:00
3:53 PM,66.9,61.0,81,29.83,5.0,West,5.8,-,N/A,,Haze,260,2012-10-20 22:53:00
4:53 PM,66.9,61.0,81,29.83,10.0,WSW,6.9,-,N/A,,Overcast,250,2012-10-20 23:53:00
5:53 PM,66.0,61.0,84,29.83,10.0,West,6.9,-,N/A,,Overcast,260,2012-10-21 00:53:00
6:14 PM,66.2,60.8,83,29.83,10.0,West,5.8,-,N/A,,Overcast,270,2012-10-21 01:14:00
6:53 PM,66.0,61.0,84,29.83,10.0,West,4.6,-,N/A,,Overcast,260,2012-10-21 01:53:00
7:25 PM,66.2,60.8,83,29.83,10.0,WSW,4.6,-,N/A,,Overcast,250,2012-10-21 02:25:00
7:53 PM,64.9,60.1,84,29.84,10.0,West,3.5,-,N/A,,Overcast,260,2012-10-21 02:53:00
8:53 PM,64.9,59.0,81,29.84,10.0,Calm,Calm,-,N/A,,Mostly Cloudy,0,2012-10-21 03:53:00
9:53 PM,64.0,59.0,84,29.85,10.0,Calm,Calm,-,N/A,,Overcast,0,2012-10-21 04:53:00
10:53 PM,64.0,59.0,84,29.86,10.0,Calm,Calm,-,N/A,,Overcast,0,2012-10-21 05:53:00
11:53 PM,64.0,60.1,87,29.86,10.0,Calm,Calm,-,N/A,,Overcast,0,2012-10-21 06:53:00